Hourly Weather Muratbaev

Today, 20 September, Monday

Time Temperature Precipitation Wind Pressure Humidity
00:00 +12°C° 0 mm 4 mps 754 mmHg 28%
01:00 +11°C° 0 mm 4 mps 754 mmHg 30%
02:00 +11°C° 0 mm 4 mps 754 mmHg 31%
03:00 +11°C° 0 mm 4 mps 754 mmHg 33%
04:00 +10°C° 0 mm 4 mps 754 mmHg 34%
05:00 +10°C° 0 mm 5 mps 754 mmHg 33%
06:00 +12°C° 0 mm 5 mps 754 mmHg 32%
07:00 +13°C° 0 mm 6 mps 754 mmHg 30%
08:00 +14°C° 0 mm 6 mps 754 mmHg 26%
09:00 +16°C° 0 mm 6 mps 754 mmHg 22%
10:00 +18°C° 0 mm 7 mps 754 mmHg 18%
11:00 +19°C° 0 mm 6 mps 754 mmHg 17%
12:00 +20°C° 0 mm 6 mps 753 mmHg 15%
13:00 +21°C° 0 mm 6 mps 753 mmHg 13%
14:00 +21°C° 0 mm 6 mps 753 mmHg 14%
15:00 +21°C° 0 mm 6 mps 753 mmHg 14%
16:00 +21°C° 0 mm 7 mps 752 mmHg 14%
17:00 +19°C° 0 mm 6 mps 752 mmHg 16%
18:00 +17°C° 0 mm 5 mps 752 mmHg 18%
19:00 +15°C° 0 mm 4 mps 752 mmHg 20%
20:00 +15°C° 0 mm 4 mps 752 mmHg 21%
21:00 +14°C° 0 mm 4 mps 752 mmHg 22%
22:00 +14°C° 0 mm 4 mps 752 mmHg 23%
23:00 +13°C° 0 mm 4 mps 752 mmHg 24%

Tomorrow, 21 September, Tuesday

Time Temperature Precipitation Wind Pressure Humidity
00:00 +13°C° 0 mm 5 mps 752 mmHg 25%
01:00 +12°C° 0 mm 5 mps 752 mmHg 26%
02:00 +12°C° 0 mm 5 mps 752 mmHg 27%
03:00 +10°C° 0 mm 5 mps 752 mmHg 29%
04:00 +10°C° 0 mm 5 mps 752 mmHg 30%
05:00 +12°C° 0 mm 5 mps 752 mmHg 30%
06:00 +11°C° 0 mm 6 mps 752 mmHg 30%
07:00 +13°C° 0 mm 6 mps 753 mmHg 30%
08:00 +15°C° 0 mm 6 mps 753 mmHg 26%
09:00 +16°C° 0 mm 6 mps 753 mmHg 23%
10:00 +18°C° 0 mm 7 mps 753 mmHg 19%
11:00 +20°C° 0 mm 7 mps 752 mmHg 18%
12:00 +21°C° 0 mm 7 mps 752 mmHg 16%
13:00 +22°C° 0 mm 7 mps 752 mmHg 15%
14:00 +22°C° 0 mm 7 mps 752 mmHg 15%
15:00 +21°C° 0 mm 7 mps 751 mmHg 15%
16:00 +21°C° 0 mm 7 mps 751 mmHg 15%
17:00 +20°C° 0 mm 6 mps 751 mmHg 16%
18:00 +17°C° 0 mm 6 mps 751 mmHg 17%
19:00 +16°C° 0 mm 5 mps 751 mmHg 19%
20:00 +15°C° 0 mm 5 mps 751 mmHg 20%
21:00 +15°C° 0 mm 5 mps 751 mmHg 21%
22:00 +14°C° 0 mm 5 mps 751 mmHg 22%
23:00 +13°C° 0 mm 5 mps 751 mmHg 24%

Day after tomorrow, 22 September, Wednesday

Time Temperature Precipitation Wind Pressure Humidity
00:00 +13°C° 0 mm 5 mps 751 mmHg 26%
01:00 +12°C° 0 mm 5 mps 751 mmHg 28%
02:00 +10°C° 0 mm 5 mps 751 mmHg 30%
03:00 +10°C° 0 mm 5 mps 751 mmHg 32%
04:00 +9°C° 0 mm 5 mps 751 mmHg 34%
05:00 +9°C° 0 mm 5 mps 751 mmHg 33%
06:00 +10°C° 0 mm 6 mps 751 mmHg 32%
07:00 +10°C° 0 mm 6 mps 752 mmHg 32%
08:00 +13°C° 0 mm 6 mps 752 mmHg 28%
09:00 +15°C° 0 mm 6 mps 752 mmHg 24%
10:00 +17°C° 0 mm 6 mps 752 mmHg 21%
11:00 +19°C° 0 mm 6 mps 751 mmHg 19%
12:00 +20°C° 0 mm 6 mps 751 mmHg 17%
13:00 +21°C° 0 mm 6 mps 751 mmHg 15%
14:00 +21°C° 0 mm 7 mps 751 mmHg 15%
15:00 +20°C° 0 mm 7 mps 751 mmHg 15%
16:00 +20°C° 0 mm 7 mps 751 mmHg 15%
17:00 +19°C° 0 mm 6 mps 751 mmHg 16%
18:00 +16°C° 0 mm 5 mps 751 mmHg 18%
19:00 +15°C° 0 mm 5 mps 751 mmHg 19%
20:00 +15°C° 0 mm 5 mps 751 mmHg 20%
21:00 +14°C° 0 mm 5 mps 751 mmHg 21%
22:00 +14°C° 0 mm 5 mps 751 mmHg 21%
23:00 +13°C° 0 mm 5 mps 751 mmHg 22%

23 September, Thursday

Time Temperature Precipitation Wind Pressure Humidity
00:00 +13°C° 0 mm 5 mps 751 mmHg 24%
01:00 +12°C° 0 mm 5 mps 751 mmHg 25%
02:00 +10°C° 0 mm 5 mps 752 mmHg 26%
03:00 +10°C° 0 mm 5 mps 752 mmHg 27%
04:00 +9°C° 0 mm 5 mps 752 mmHg 28%
05:00 +10°C° 0 mm 6 mps 752 mmHg 28%
06:00 +10°C° 0 mm 6 mps 752 mmHg 28%
07:00 +10°C° 0 mm 7 mps 753 mmHg 27%
08:00 +12°C° 0 mm 7 mps 753 mmHg 24%
09:00 +15°C° 0 mm 7 mps 753 mmHg 21%
10:00 +17°C° 0 mm 8 mps 753 mmHg 18%
11:00 +18°C° 0 mm 8 mps 753 mmHg 16%
12:00 +20°C° 0 mm 8 mps 753 mmHg 14%
13:00 +21°C° 0 mm 8 mps 753 mmHg 12%
14:00 +21°C° 0 mm 8 mps 753 mmHg 11%
15:00 +21°C° 0 mm 8 mps 753 mmHg 11%
16:00 +21°C° 0 mm 8 mps 753 mmHg 10%
17:00 +20°C° 0 mm 7 mps 753 mmHg 12%
18:00 +17°C° 0 mm 7 mps 753 mmHg 13%
19:00 +16°C° 0 mm 7 mps 753 mmHg 14%
20:00 +15°C° 0 mm 7 mps 753 mmHg 17%
21:00 +15°C° 0 mm 7 mps 753 mmHg 19%
22:00 +13°C° 0 mm 8 mps 754 mmHg 21%
23:00 +13°C° 0 mm 8 mps 754 mmHg 23%

24 September, Friday

Time Temperature Precipitation Wind Pressure Humidity
00:00 +12°C° 0 mm 8 mps 754 mmHg 25%
01:00 +12°C° 0 mm 8 mps 754 mmHg 26%
02:00 +11°C° 0 mm 8 mps 754 mmHg 28%
03:00 +10°C° 0 mm 8 mps 754 mmHg 30%
04:00 +10°C° 0 mm 8 mps 754 mmHg 32%
05:00 +10°C° 0 mm 8 mps 755 mmHg 33%
06:00 +10°C° 0 mm 9 mps 755 mmHg 34%
07:00 +10°C° 0 mm 9 mps 755 mmHg 35%
08:00 +12°C° 0 mm 10 mps 755 mmHg 30%
09:00 +14°C° 0 mm 10 mps 755 mmHg 26%
10:00 +17°C° 0 mm 11 mps 755 mmHg 22%
11:00 +19°C° 0 mm 11 mps 754 mmHg 19%
12:00 +22°C° 0 mm 10 mps 754 mmHg 17%
13:00 +23°C° 0 mm 10 mps 754 mmHg 15%
14:00 +24°C° 0 mm 10 mps 753 mmHg 15%
15:00 +24°C° 0 mm 9 mps 753 mmHg 14%
16:00 +24°C° 0 mm 9 mps 753 mmHg 13%
17:00 +23°C° 0 mm 9 mps 753 mmHg 14%
18:00 +22°C° 0 mm 9 mps 753 mmHg 14%
19:00 +19°C° 0 mm 9 mps 753 mmHg 14%
20:00 +19°C° 0 mm 9 mps 753 mmHg 15%
21:00 +18°C° 0 mm 9 mps 753 mmHg 15%
22:00 +18°C° 0 mm 9 mps 753 mmHg 15%
23:00 +17°C° 0 mm 9 mps 753 mmHg 17%

25 September, Saturday

Time Temperature Precipitation Wind Pressure Humidity
00:00 +16°C° 0 mm 9 mps 752 mmHg 19%
01:00 +15°C° 0 mm 9 mps 752 mmHg 22%
02:00 +13°C° 0 mm 9 mps 752 mmHg 24%
03:00 +13°C° 0 mm 9 mps 752 mmHg 26%
04:00 +12°C° 0 mm 8 mps 752 mmHg 28%
05:00 +12°C° 0 mm 9 mps 752 mmHg 28%
06:00 +12°C° 0 mm 9 mps 752 mmHg 28%
07:00 +12°C° 0 mm 10 mps 752 mmHg 28%
08:00 +16°C° 0 mm 10 mps 752 mmHg 24%
09:00 +18°C° 0 mm 11 mps 752 mmHg 20%
10:00 +21°C° 0 mm 11 mps 752 mmHg 16%
11:00 +23°C° 0 mm 10 mps 752 mmHg 13%
12:00 +24°C° 0 mm 10 mps 751 mmHg 11%
13:00 +27°C° 0 mm 9 mps 751 mmHg 9%
14:00 +27°C° 0 mm 9 mps 751 mmHg 9%
15:00 +27°C° 0 mm 8 mps 751 mmHg 8%
16:00 +27°C° 0 mm 8 mps 751 mmHg 8%
17:00 +24°C° 0 mm 7 mps 751 mmHg 9%
18:00 +22°C° 0 mm 7 mps 751 mmHg 10%
19:00 +20°C° 0 mm 6 mps 751 mmHg 11%
20:00 +20°C° 0 mm 6 mps 751 mmHg 11%
21:00 +19°C° 0 mm 6 mps 751 mmHg 11%
22:00 +17°C° 0 mm 6 mps 750 mmHg 11%
23:00 +17°C° 0 mm 5 mps 750 mmHg 12%
Show more

We Need Your Consent

Meteoprog and our Service Providers may store and access personal data such as cookies, device identifiers or other similar technologies on your device and process such data to personalise content and ads, as well as provide social media features and to analyse the traffic.

  • Store and/or access information on your device

    Cookies, device identifiers or other information can be stored or accessed on your device for the purposes indicated above.

  • Personalised ads and content, ad and content measurement, audience insights, and products development

    Ads and content can be personalised based on a profile. More data can be added to better personalise ads and content. Ad and content performance can be measured. Insights about the audience who saw the ads and content can be derived. Such data can be used to develop or improve user’s experience, systems and software.

By clicking ‘I Agree’ you will allow the use of indicated cookies, device identifiers, web beacons or other similar technologies. Your settings can be changed in the browser on your device.

For certain purposes, legitimate interests may be relied on, rather than consent. You can read more about this in our Privacy and Cookie Policy.